Flag for Philippines Weather past 2 weeks in Isabela City, Philippines

Now
84 °F

Overcast.


Feels Like: 96 °F
Forecast: 81 / 87 °F
Wind: 5 mph from Southwest

Location: Zamboanga

Current Time: Jul 1, 2015 at 10:34:21 AM

Latest Report: Jul 1, 2015 at 10:00 AM


Visibility: N/A

Pressure: 29.92 "Hg

Humidity: 84%

Dew point: 79 °F

Location of Isabela CityLocation

Historic Weather in Isabela City — Graph

°F

Isabela City temperature yesterday

Maximum temperature yesterday: 88 °F (at 4:00 PM)
Minimum temperature yesterday: 73 °F (at 5:00 AM)
Average temperature yesterday: 79 °F

Past Weeks' High & Low Weather Summary

 TemperatureHumidityPressure
High93 °F (Jun 21, 12:00 PM)100% (Jun 18, 11:00 PM)30.01 "Hg (Jun 18, 11:00 PM)
Low73 °F (Jun 19, 5:00 AM)63% (Jun 22, 1:00 PM)29.77 "Hg (Jun 16, 3:00 PM)
Average83 °F84%29.88 "Hg
* Reported Jun 16 9:00 AM — Jul 1 9:00 AM, Isabela City, Weather by CustomWeather, © 2015

Note: Actual official high and low records may vary slightly from our data, if they occured in-between our weather recording intervals... More about our weather records

Advertising

Isabela City weather history for previous 24 hours

 ConditionsComfort  
Time TempWeatherWind HumidityBarometerVisibility
9:00 AM
Wed, Jul 1
84 °FOvercast.5 mph84%29.92 "HgN/A
8:00 AM82 °FMore clouds than sun.5 mph89%29.92 "HgN/A
6:00 AM81 °FMore clouds than sun.5 mph89%29.89 "HgN/A
5:00 AM79 °FSprinkles. Mostly cloudy.5 mph89%29.86 "HgN/A
2:00 AM81 °FMostly cloudy.5 mph89%29.86 "HgN/A
11:00 PM
Tue, Jun 30
77 °FPassing clouds.No wind94%29.95 "HgN/A
8:00 PM81 °FPassing clouds.No wind89%29.92 "Hg6 mi
6:00 PM82 °FScattered clouds.No wind89%29.89 "Hg5 mi
5:00 PM84 °FScattered clouds.No wind84%29.86 "Hg6 mi
4:00 PM88 °FBroken clouds.7 mph75%29.86 "HgN/A
3:00 PM86 °FBroken clouds.9 mph75%29.83 "HgN/A
2:00 PM84 °FBroken clouds.5 mph74%29.86 "HgN/A
1:00 PM82 °FBroken clouds.7 mph79%29.89 "HgN/A
12:00 PM79 °FBroken clouds.12 mph84%29.92 "Hg5 mi
11:00 AM75 °FLight rain. More clouds than sun.16 mph100%29.95 "Hg1 mi
10:00 AM75 °FSprinkles. More clouds than sun.12 mph94%29.98 "Hg1 mi
Weather by CustomWeather, © 2015

See weather overviewHow to use our weather pages